{"data":{"norad_id":41925,"intl_designator":"2017-003J","name":"IRIDIUM 112","alt_names":[],"object_type":"PAYLOAD","status":"ACTIVE","operator":null,"country":"US","launch_date":"2017-01-14","launch_site_code":"AFWTR","launch_vehicle":null,"mission":null,"orbit_class":"UNKNOWN","rcs_meters":2.652,"size_class":null,"mass_kg":null,"dimensions":null,"purposes":["comms"],"wikipedia_slug":null,"has_3d_model":false,"image_url":null,"decayed_at":null,"tle_current":{"epoch":"2026-05-25T02:38:18.320064Z","epoch_age_seconds":76265,"freshness":"FRESH","line1":"1 41925U 17003J   26145.10993426  .00000030  00000+0  37488-5 0  9991","line2":"2 41925  86.3947  97.9548 0002358  87.9093 272.2372 14.34217659489969","mean_motion":14.34217659,"eccentricity":0.0002358,"inclination_deg":86.3947,"raan_deg":97.9548,"arg_perigee_deg":87.9093,"mean_anomaly_deg":272.2372,"bstar":3.7488e-6,"rev_number":48996,"period_min":100.40317039493,"perigee_km":775.98011834933,"apogee_km":779.35479573127,"semimajor_km":7155.8044570403,"source":"CELESTRAK","updated_at":"2026-05-25T13:38:14.798438Z"}}}